Location: Azalea Creek
(37.1280°N, 119.2623°W)
Time: 18:30:11
(UTC+00:00)

Cosmos 1707 Rocket - Pass Details

Date: 17 February 2020
Orbit: 606 x 631 km, 82.5° (Epoch: 29 March)

Event Time Altitude Azimuth Distance (km) Brightness Sun altitude
Rises 02:58:08 0° 354° (N) 2,908 7.0 -16.6°
Reaches altitude 10° 03:00:22 10° 357° (N) 2,001 6.2 -17.1°
Maximum altitude 03:04:48 75° 82° (E) 651 3.4 -18.0°
Drops below altitude 10° 03:09:14 10° 169° (SSE) 1,999 6.1 -18.8°
Sets 03:11:28 0° 171° (S) 2,903 6.9 -19.3°
